Time,TemperatureF,DewpointF,PressureIn,WindDirection,WindDirectionDegrees,WindSpeedMPH,WindSpeedGustMPH,Humidity,HourlyPrecipIn,Conditions,Clouds,dailyrainin,SolarRadiationWatts/m^2,SoftwareType,DateUTC
2013-11-21 00:02:00,60.0,40.3,29.79,SE,138,0.0,0.0,48,0.00,,,0.00,0,LWC V2.00 B727,2013-11-21 07:02:00,
2013-11-21 00:07:00,60.0,40.3,29.79,SE,137,0.0,0.0,48,0.00,,,0.00,0,LWC V2.00 B727,2013-11-21 07:07:00,
2013-11-21 00:12:00,59.9,40.2,29.79,SE,137,0.0,0.0,48,0.00,,,0.00,0,LWC V2.00 B727,2013-11-21 07:12:00,
2013-11-21 00:17:00,59.9,40.2,29.79,SE,138,0.0,0.0,48,0.00,,,0.00,0,LWC V2.00 B727,2013-11-21 07:17:00,
2013-11-21 00:22:00,59.8,40.1,29.79,SE,138,0.0,0.0,48,0.00,,,0.00,0,LWC V2.00 B727,2013-11-21 07:22:00,
2013-11-21 00:27:00,59.8,40.6,29.79,SE,138,0.0,0.0,49,0.00,,,0.00,0,LWC V2.00 B727,2013-11-21 07:27:00,
2013-11-21 00:32:00,59.8,40.6,29.79,SE,137,0.0,0.0,49,0.00,,,0.00,0,LWC V2.00 B727,2013-11-21 07:32:00,
2013-11-21 00:37:00,59.8,40.6,29.79,SE,137,0.0,0.0,49,0.00,,,0.00,0,LWC V2.00 B727,2013-11-21 07:37:00,
2013-11-21 00:42:00,59.8,40.6,29.79,SE,137,0.0,0.0,49,0.00,,,0.00,0,LWC V2.00 B727,2013-11-21 07:42:00,
2013-11-21 00:47:00,59.8,40.6,29.79,SE,138,0.0,0.0,49,0.00,,,0.00,0,LWC V2.00 B727,2013-11-21 07:47:00,
2013-11-21 00:52:00,59.8,40.6,29.79,SE,137,0.0,0.0,49,0.00,,,0.00,0,LWC V2.00 B727,2013-11-21 07:52:00,
2013-11-21 00:57:00,59.8,40.6,29.79,SE,137,0.0,0.0,49,0.00,,,0.00,0,LWC V2.00 B727,2013-11-21 07:57:00,
2013-11-21 01:02:00,59.7,40.5,29.79,SE,138,0.0,0.0,49,0.00,,,0.00,0,LWC V2.00 B727,2013-11-21 08:02:00,
2013-11-21 01:07:00,59.7,40.5,29.79,SE,138,0.0,0.0,49,0.00,,,0.00,0,LWC V2.00 B727,2013-11-21 08:07:00,
2013-11-21 01:12:00,59.7,40.5,29.79,SE,137,0.0,0.0,49,0.00,,,0.00,0,LWC V2.00 B727,2013-11-21 08:12:00,
2013-11-21 01:17:00,59.7,40.5,29.79,SE,137,0.0,0.0,49,0.00,,,0.00,0,LWC V2.00 B727,2013-11-21 08:17:00,
2013-11-21 01:22:00,59.6,40.4,29.79,SE,137,0.0,0.0,49,0.00,,,0.00,0,LWC V2.00 B727,2013-11-21 08:22:00,
2013-11-21 01:27:00,59.5,40.3,29.79,SE,138,0.0,0.0,49,0.00,,,0.00,0,LWC V2.00 B727,2013-11-21 08:27:00,
2013-11-21 01:32:00,59.5,40.3,29.78,SE,137,0.0,0.0,49,0.00,,,0.00,0,LWC V2.00 B727,2013-11-21 08:32:00,
2013-11-21 01:37:00,59.4,40.8,29.79,SE,137,0.0,0.0,50,0.00,,,0.00,0,LWC V2.00 B727,2013-11-21 08:37:00,
2013-11-21 01:42:00,59.1,40.5,29.79,SE,137,0.0,0.0,50,0.00,,,0.00,0,LWC V2.00 B727,2013-11-21 08:42:00,
2013-11-21 01:47:00,59.0,40.4,29.79,SE,137,0.0,0.0,50,0.00,,,0.00,0,LWC V2.00 B727,2013-11-21 08:47:00,
2013-11-21 01:52:00,58.9,40.3,29.79,SE,138,0.0,0.0,50,0.00,,,0.00,0,LWC V2.00 B727,2013-11-21 08:52:00,
2013-11-21 01:57:00,58.9,40.8,29.79,SE,138,0.0,0.0,51,0.00,,,0.00,0,LWC V2.00 B727,2013-11-21 08:57:00,
2013-11-21 02:02:00,58.8,40.7,29.80,SE,137,0.0,0.0,51,0.00,,,0.00,0,LWC V2.00 B727,2013-11-21 09:02:00,
2013-11-21 02:07:00,58.7,40.6,29.80,SE,138,0.0,0.0,51,0.00,,,0.00,0,LWC V2.00 B727,2013-11-21 09:07:00,
2013-11-21 02:12:00,58.7,41.1,29.79,SE,138,0.0,0.0,52,0.00,,,0.00,0,LWC V2.00 B727,2013-11-21 09:12:00,
2013-11-21 02:17:00,58.6,41.0,29.79,SE,138,0.0,0.0,52,0.00,,,0.00,0,LWC V2.00 B727,2013-11-21 09:17:00,
2013-11-21 02:22:00,58.6,41.0,29.79,SE,138,0.0,0.0,52,0.00,,,0.00,0,LWC V2.00 B727,2013-11-21 09:22:00,
2013-11-21 02:27:00,58.6,41.0,29.79,SE,138,0.0,0.0,52,0.00,,,0.00,0,LWC V2.00 B727,2013-11-21 09:27:00,
2013-11-21 02:32:00,58.5,40.9,29.79,SE,138,0.0,0.0,52,0.00,,,0.00,0,LWC V2.00 B727,2013-11-21 09:32:00,
2013-11-21 02:37:00,58.6,41.0,29.79,SE,138,0.0,0.0,52,0.00,,,0.00,0,LWC V2.00 B727,2013-11-21 09:37:00,
2013-11-21 02:42:00,58.6,41.5,29.79,SE,138,0.0,0.0,53,0.00,,,0.00,0,LWC V2.00 B727,2013-11-21 09:42:00,
2013-11-21 02:47:00,58.6,41.5,29.79,SE,138,0.0,0.0,53,0.00,,,0.00,0,LWC V2.00 B727,2013-11-21 09:47:00,
2013-11-21 02:52:00,58.6,41.5,29.79,SE,138,0.0,0.0,53,0.00,,,0.00,0,LWC V2.00 B727,2013-11-21 09:52:00,
2013-11-21 02:57:00,58.6,41.5,29.79,SE,138,0.0,0.0,53,0.00,,,0.00,0,LWC V2.00 B727,2013-11-21 09:57:00,
2013-11-21 03:02:00,58.7,41.6,29.79,SE,138,0.0,0.0,53,0.00,,,0.00,0,LWC V2.00 B727,2013-11-21 10:02:00,
2013-11-21 03:07:00,58.7,41.6,29.79,SE,138,0.0,0.0,53,0.00,,,0.00,0,LWC V2.00 B727,2013-11-21 10:07:00,
2013-11-21 03:12:00,58.7,41.6,29.79,SE,138,0.0,0.0,53,0.00,,,0.00,0,LWC V2.00 B727,2013-11-21 10:12:00,
2013-11-21 03:17:00,58.7,41.6,29.79,SE,138,0.0,0.0,53,0.00,,,0.00,0,LWC V2.00 B727,2013-11-21 10:17:00,
2013-11-21 03:22:00,58.7,41.6,29.79,SE,138,0.0,0.0,53,0.00,,,0.00,0,LWC V2.00 B727,2013-11-21 10:22:00,
2013-11-21 03:27:00,58.6,41.5,29.79,SE,138,0.0,0.0,53,0.00,,,0.00,0,LWC V2.00 B727,2013-11-21 10:27:00,
2013-11-21 03:32:00,58.6,41.5,29.79,SE,138,0.0,0.0,53,0.00,,,0.00,0,LWC V2.00 B727,2013-11-21 10:32:00,
2013-11-21 03:37:00,58.6,41.5,29.79,SE,138,0.0,0.0,53,0.00,,,0.00,0,LWC V2.00 B727,2013-11-21 10:37:00,
2013-11-21 03:42:00,58.6,41.5,29.78,SE,138,0.0,0.0,53,0.00,,,0.00,0,LWC V2.00 B727,2013-11-21 10:42:00,
2013-11-21 03:47:00,58.6,41.5,29.78,SE,138,0.0,0.0,53,0.00,,,0.00,0,LWC V2.00 B727,2013-11-21 10:47:00,
2013-11-21 03:52:00,58.6,41.5,29.78,SE,138,0.0,0.0,53,0.00,,,0.00,0,LWC V2.00 B727,2013-11-21 10:52:00,
2013-11-21 03:57:00,58.6,41.5,29.78,SE,138,0.0,0.0,53,0.00,,,0.00,0,LWC V2.00 B727,2013-11-21 10:57:00,
2013-11-21 04:02:00,58.5,41.4,29.78,SE,138,0.0,0.0,53,0.00,,,0.00,0,LWC V2.00 B727,2013-11-21 11:02:00,
2013-11-21 04:07:00,58.5,41.4,29.78,SE,138,0.0,0.0,53,0.00,,,0.00,0,LWC V2.00 B727,2013-11-21 11:07:00,
2013-11-21 04:12:00,58.3,41.7,29.78,SE,138,0.0,0.0,54,0.00,,,0.00,0,LWC V2.00 B727,2013-11-21 11:12:00,
2013-11-21 04:17:00,58.2,41.6,29.78,SE,138,0.0,0.0,54,0.00,,,0.00,0,LWC V2.00 B727,2013-11-21 11:17:00,
2013-11-21 04:22:00,58.0,41.4,29.78,SE,138,0.0,0.0,54,0.00,,,0.00,0,LWC V2.00 B727,2013-11-21 11:22:00,
2013-11-21 04:27:00,57.9,41.4,29.77,SE,138,0.0,0.0,54,0.00,,,0.00,0,LWC V2.00 B727,2013-11-21 11:27:00,
2013-11-21 04:32:00,57.7,41.6,29.77,SE,138,0.0,0.0,55,0.00,,,0.00,0,LWC V2.00 B727,2013-11-21 11:32:00,
2013-11-21 04:37:00,57.5,41.5,29.77,SE,138,0.0,0.0,55,0.00,,,0.00,0,LWC V2.00 B727,2013-11-21 11:37:00,
2013-11-21 04:42:00,57.3,41.3,29.77,SE,138,0.0,0.0,55,0.00,,,0.00,0,LWC V2.00 B727,2013-11-21 11:42:00,
2013-11-21 04:47:00,57.2,41.2,29.78,SE,138,0.0,0.0,55,0.00,,,0.00,0,LWC V2.00 B727,2013-11-21 11:47:00,
2013-11-21 04:52:00,57.1,41.6,29.78,SE,138,0.0,0.0,56,0.00,,,0.00,0,LWC V2.00 B727,2013-11-21 11:52:00,
2013-11-21 04:57:00,57.0,41.5,29.78,SE,138,0.0,0.0,56,0.00,,,0.00,0,LWC V2.00 B727,2013-11-21 11:57:00,
2013-11-21 05:02:00,57.0,41.5,29.78,SE,138,0.0,0.0,56,0.00,,,0.00,0,LWC V2.00 B727,2013-11-21 12:02:00,
2013-11-21 05:07:00,56.9,41.4,29.78,SE,138,0.0,0.0,56,0.00,,,0.00,0,LWC V2.00 B727,2013-11-21 12:07:00,
2013-11-21 05:12:00,56.9,41.4,29.78,SE,138,0.0,0.0,56,0.00,,,0.00,0,LWC V2.00 B727,2013-11-21 12:12:00,
2013-11-21 05:17:00,56.7,41.2,29.78,SE,138,0.0,0.0,56,0.00,,,0.00,0,LWC V2.00 B727,2013-11-21 12:17:00,
2013-11-21 05:22:00,56.6,41.1,29.78,SE,138,0.0,0.0,56,0.00,,,0.00,0,LWC V2.00 B727,2013-11-21 12:22:00,
2013-11-21 05:27:00,56.5,41.5,29.78,SE,138,0.0,0.0,57,0.00,,,0.00,0,LWC V2.00 B727,2013-11-21 12:27:00,
2013-11-21 05:32:00,56.5,41.5,29.78,SE,138,0.0,0.0,57,0.00,,,0.00,0,LWC V2.00 B727,2013-11-21 12:32:00,
2013-11-21 05:37:00,56.6,41.5,29.78,SE,138,0.0,0.0,57,0.00,,,0.00,0,LWC V2.00 B727,2013-11-21 12:37:00,
2013-11-21 05:42:00,56.5,41.5,29.79,SE,138,0.0,0.0,57,0.00,,,0.00,0,LWC V2.00 B727,2013-11-21 12:42:00,
2013-11-21 05:47:00,56.5,41.5,29.79,SE,138,0.0,0.0,57,0.00,,,0.00,0,LWC V2.00 B727,2013-11-21 12:47:00,
2013-11-21 05:52:00,56.4,41.4,29.79,SE,138,0.0,0.0,57,0.00,,,0.00,0,LWC V2.00 B727,2013-11-21 12:52:00,
2013-11-21 05:57:00,56.3,40.8,29.79,SE,138,0.0,0.0,56,0.00,,,0.00,0,LWC V2.00 B727,2013-11-21 12:57:00,
2013-11-21 06:02:00,56.2,40.7,29.79,SE,138,0.0,0.0,56,0.00,,,0.00,0,LWC V2.00 B727,2013-11-21 13:02:00,
2013-11-21 06:07:00,56.0,41.0,29.79,SE,138,0.0,0.0,57,0.00,,,0.00,0,LWC V2.00 B727,2013-11-21 13:07:00,
2013-11-21 06:12:00,55.9,40.9,29.79,SE,138,0.0,0.0,57,0.00,,,0.00,0,LWC V2.00 B727,2013-11-21 13:12:00,
2013-11-21 06:17:00,55.8,41.2,29.78,SE,138,0.0,0.0,58,0.00,,,0.00,0,LWC V2.00 B727,2013-11-21 13:17:00,
2013-11-21 06:22:00,55.8,41.2,29.78,SE,138,0.0,0.0,58,0.00,,,0.00,0,LWC V2.00 B727,2013-11-21 13:22:00,
2013-11-21 06:27:00,55.7,41.2,29.79,SE,138,0.0,0.0,58,0.00,,,0.00,0,LWC V2.00 B727,2013-11-21 13:27:00,
2013-11-21 06:32:00,55.7,41.2,29.79,SE,138,0.0,0.0,58,0.00,,,0.00,0,LWC V2.00 B727,2013-11-21 13:32:00,
2013-11-21 06:37:00,55.7,41.2,29.79,SE,138,0.0,0.0,58,0.00,,,0.00,0,LWC V2.00 B727,2013-11-21 13:37:00,
2013-11-21 06:42:00,55.6,40.6,29.79,SE,138,0.0,0.0,57,0.00,,,0.00,0,LWC V2.00 B727,2013-11-21 13:42:00,
2013-11-21 06:47:00,55.5,41.0,29.79,SE,138,0.0,0.0,58,0.00,,,0.00,0,LWC V2.00 B727,2013-11-21 13:47:00,
2013-11-21 06:52:00,55.4,40.9,29.79,SE,138,0.0,0.0,58,0.00,,,0.00,0,LWC V2.00 B727,2013-11-21 13:52:00,
2013-11-21 06:57:00,55.3,40.8,29.80,SE,138,0.0,0.0,58,0.00,,,0.00,5,LWC V2.00 B727,2013-11-21 13:57:00,
2013-11-21 07:02:00,55.3,40.8,29.80,SE,138,0.0,0.0,58,0.00,,,0.00,7,LWC V2.00 B727,2013-11-21 14:02:00,
2013-11-21 07:07:00,55.3,40.8,29.80,SE,138,0.0,0.0,58,0.00,,,0.00,9,LWC V2.00 B727,2013-11-21 14:07:00,
2013-11-21 07:12:00,55.4,40.9,29.80,SE,138,0.0,0.0,58,0.00,,,0.00,12,LWC V2.00 B727,2013-11-21 14:12:00,
2013-11-21 07:17:00,55.4,40.9,29.81,SE,138,0.0,0.0,58,0.00,,,0.00,16,LWC V2.00 B727,2013-11-21 14:17:00,
2013-11-21 07:22:00,55.5,41.0,29.80,SE,138,0.0,0.0,58,0.00,,,0.00,12,LWC V2.00 B727,2013-11-21 14:22:00,
2013-11-21 07:27:00,55.6,41.1,29.81,SE,138,0.0,0.0,58,0.00,,,0.00,16,LWC V2.00 B727,2013-11-21 14:27:00,
2013-11-21 07:32:00,55.7,40.7,29.81,SE,138,0.0,0.0,57,0.00,,,0.00,19,LWC V2.00 B727,2013-11-21 14:32:00,
2013-11-21 07:37:00,55.8,40.8,29.81,SE,138,0.0,0.0,57,0.00,,,0.00,21,LWC V2.00 B727,2013-11-21 14:37:00,
2013-11-21 07:42:00,55.9,40.9,29.82,SE,138,0.0,0.0,57,0.00,,,0.00,25,LWC V2.00 B727,2013-11-21 14:42:00,
2013-11-21 07:47:00,55.9,40.9,29.82,SE,138,0.0,0.0,57,0.00,,,0.00,28,LWC V2.00 B727,2013-11-21 14:47:00,
2013-11-21 07:52:00,56.0,41.0,29.82,SE,138,0.0,0.0,57,0.00,,,0.00,32,LWC V2.00 B727,2013-11-21 14:52:00,
2013-11-21 07:57:00,56.2,41.2,29.82,SE,138,0.0,0.0,57,0.00,,,0.00,47,LWC V2.00 B727,2013-11-21 14:57:00,
2013-11-21 08:02:00,56.6,41.1,29.82,SE,138,0.0,0.0,56,0.00,,,0.00,74,LWC V2.00 B727,2013-11-21 15:02:00,
2013-11-21 08:07:00,57.5,41.5,29.82,SE,138,0.0,0.0,55,0.00,,,0.00,199,LWC V2.00 B727,2013-11-21 15:07:00,
2013-11-21 08:12:00,59.2,42.1,29.82,SE,138,0.0,0.0,53,0.00,,,0.00,225,LWC V2.00 B727,2013-11-21 15:12:00,
2013-11-21 08:17:00,60.6,41.9,29.82,SE,138,0.0,0.0,50,0.00,,,0.00,234,LWC V2.00 B727,2013-11-21 15:17:00,
2013-11-21 08:22:00,61.3,41.4,29.82,SE,138,0.0,0.0,48,0.00,,,0.00,288,LWC V2.00 B727,2013-11-21 15:22:00,
2013-11-21 08:27:00,62.0,41.5,29.82,SE,138,0.0,0.0,47,0.00,,,0.00,308,LWC V2.00 B727,2013-11-21 15:27:00,
2013-11-21 08:32:00,62.5,42.0,29.82,SE,138,0.0,0.0,47,0.00,,,0.00,346,LWC V2.00 B727,2013-11-21 15:32:00,
2013-11-21 08:37:00,62.9,41.8,29.82,SE,139,0.0,0.0,46,0.00,,,0.00,359,LWC V2.00 B727,2013-11-21 15:37:00,
2013-11-21 08:42:00,62.9,41.8,29.82,SE,139,0.0,0.0,46,0.00,,,0.00,325,LWC V2.00 B727,2013-11-21 15:42:00,
2013-11-21 08:47:00,62.9,41.2,29.83,SE,139,0.0,0.0,45,0.00,,,0.00,301,LWC V2.00 B727,2013-11-21 15:47:00,
2013-11-21 08:52:00,62.6,41.5,29.83,SE,139,0.0,0.0,46,0.00,,,0.00,206,LWC V2.00 B727,2013-11-21 15:52:00,
2013-11-21 08:57:00,62.2,41.2,29.83,SSE,158,0.0,0.0,46,0.00,,,0.00,221,LWC V2.00 B727,2013-11-21 15:57:00,
2013-11-21 09:02:00,62.1,41.1,29.83,SSE,159,2.0,2.0,46,0.00,,,0.00,403,LWC V2.00 B727,2013-11-21 16:02:00,
2013-11-21 09:07:00,62.5,40.9,29.83,SSE,159,2.0,3.0,45,0.00,,,0.00,274,LWC V2.00 B727,2013-11-21 16:07:00,
2013-11-21 09:12:00,62.7,41.0,29.83,SSW,201,0.0,2.0,45,0.00,,,0.00,234,LWC V2.00 B727,2013-11-21 16:12:00,
2013-11-21 09:17:00,62.9,41.2,29.83,SSW,206,2.0,3.0,45,0.00,,,0.00,334,LWC V2.00 B727,2013-11-21 16:17:00,
2013-11-21 09:22:00,63.0,41.3,29.83,SSW,206,0.0,0.0,45,0.00,,,0.00,218,LWC V2.00 B727,2013-11-21 16:22:00,
2013-11-21 09:27:00,63.1,41.4,29.83,SSW,208,0.0,0.0,45,0.00,,,0.00,227,LWC V2.00 B727,2013-11-21 16:27:00,
2013-11-21 09:32:00,63.4,41.1,29.83,SSW,197,1.0,4.0,44,0.00,,,0.00,330,LWC V2.00 B727,2013-11-21 16:32:00,
2013-11-21 09:37:00,63.6,41.3,29.83,SSW,198,0.0,1.0,44,0.00,,,0.00,241,LWC V2.00 B727,2013-11-21 16:37:00,
2013-11-21 09:42:00,63.7,42.0,29.83,SSW,198,0.0,0.0,45,0.00,,,0.00,348,LWC V2.00 B727,2013-11-21 16:42:00,
2013-11-21 09:47:00,64.2,41.2,29.83,SSW,198,0.0,0.0,43,0.00,,,0.00,211,LWC V2.00 B727,2013-11-21 16:47:00,
2013-11-21 09:52:00,64.4,41.4,29.83,SSW,199,0.0,2.0,43,0.00,,,0.00,322,LWC V2.00 B727,2013-11-21 16:52:00,
2013-11-21 09:57:00,64.9,41.9,29.83,SSW,210,1.0,5.0,43,0.00,,,0.00,517,LWC V2.00 B727,2013-11-21 16:57:00,
2013-11-21 10:02:00,66.8,41.0,29.83,SSE,164,3.0,4.0,39,0.00,,,0.00,561,LWC V2.00 B727,2013-11-21 17:02:00,
2013-11-21 10:07:00,67.6,40.4,29.83,SSE,153,3.0,4.0,37,0.00,,,0.00,353,LWC V2.00 B727,2013-11-21 17:07:00,
2013-11-21 10:12:00,67.7,40.5,29.82,SE,136,7.0,7.0,37,0.00,,,0.00,584,LWC V2.00 B727,2013-11-21 17:12:00,
2013-11-21 10:17:00,67.7,39.8,29.82,SSE,149,7.0,8.0,36,0.00,,,0.00,555,LWC V2.00 B727,2013-11-21 17:17:00,
2013-11-21 10:22:00,67.9,39.2,29.83,SE,126,6.0,11.0,35,0.00,,,0.00,427,LWC V2.00 B727,2013-11-21 17:22:00,
2013-11-21 10:27:00,68.0,38.6,29.82,SE,137,6.0,6.0,34,0.00,,,0.00,578,LWC V2.00 B727,2013-11-21 17:27:00,
2013-11-21 10:32:00,69.0,38.7,29.83,SSE,168,2.0,6.0,33,0.00,,,0.00,287,LWC V2.00 B727,2013-11-21 17:32:00,
2013-11-21 10:37:00,69.2,38.1,29.83,SSE,159,2.0,9.0,32,0.00,,,0.00,341,LWC V2.00 B727,2013-11-21 17:37:00,
2013-11-21 10:42:00,68.8,36.9,29.82,ESE,113,8.0,11.0,31,0.00,,,0.00,330,LWC V2.00 B727,2013-11-21 17:42:00,
2013-11-21 10:47:00,69.3,35.7,29.83,ESE,113,6.0,11.0,29,0.00,,,0.00,670,LWC V2.00 B727,2013-11-21 17:47:00,
2013-11-21 10:52:00,70.3,36.5,29.82,ESE,115,5.0,9.0,29,0.00,,,0.00,675,LWC V2.00 B727,2013-11-21 17:52:00,
2013-11-21 10:57:00,71.0,36.2,29.82,SE,132,8.0,13.0,28,0.00,,,0.00,404,LWC V2.00 B727,2013-11-21 17:57:00,
2013-11-21 11:02:00,70.4,33.9,29.82,SE,128,7.0,12.0,26,0.00,,,0.00,246,LWC V2.00 B727,2013-11-21 18:02:00,
2013-11-21 11:07:00,69.5,35.0,29.82,SE,124,11.0,16.0,28,0.00,,,0.00,216,LWC V2.00 B727,2013-11-21 18:07:00,
2013-11-21 11:12:00,68.6,34.2,29.82,SE,128,11.0,17.0,28,0.00,,,0.00,181,LWC V2.00 B727,2013-11-21 18:12:00,
2013-11-21 11:17:00,68.0,34.6,29.82,SE,144,8.0,12.0,29,0.00,,,0.00,183,LWC V2.00 B727,2013-11-21 18:17:00,
2013-11-21 11:22:00,67.6,35.1,29.82,SSE,154,7.0,10.0,30,0.00,,,0.00,181,LWC V2.00 B727,2013-11-21 18:22:00,
2013-11-21 11:27:00,67.2,34.7,29.82,ESE,118,8.0,11.0,30,0.00,,,0.00,158,LWC V2.00 B727,2013-11-21 18:27:00,
2013-11-21 11:32:00,67.0,34.5,29.82,SSE,157,7.0,11.0,30,0.00,,,0.00,169,LWC V2.00 B727,2013-11-21 18:32:00,
2013-11-21 11:37:00,66.9,35.3,29.82,SE,130,4.0,6.0,31,0.00,,,0.00,165,LWC V2.00 B727,2013-11-21 18:37:00,
2013-11-21 11:42:00,67.0,35.4,29.82,SE,125,7.0,14.0,31,0.00,,,0.00,230,LWC V2.00 B727,2013-11-21 18:42:00,
2013-11-21 11:47:00,67.4,36.5,29.82,SSE,150,3.0,5.0,32,0.00,,,0.00,666,LWC V2.00 B727,2013-11-21 18:47:00,
2013-11-21 11:52:00,68.9,37.0,29.82,SSE,148,6.0,11.0,31,0.00,,,0.00,506,LWC V2.00 B727,2013-11-21 18:52:00,
2013-11-21 11:57:00,69.8,37.0,29.81,SE,125,7.0,11.0,30,0.00,,,0.00,557,LWC V2.00 B727,2013-11-21 18:57:00,
2013-11-21 12:02:00,70.3,37.4,29.81,SSE,155,9.0,20.0,30,0.00,,,0.00,257,LWC V2.00 B727,2013-11-21 19:02:00,
2013-11-21 12:07:00,69.5,37.5,29.81,SE,139,8.0,14.0,31,0.00,,,0.00,237,LWC V2.00 B727,2013-11-21 19:07:00,
2013-11-21 12:12:00,68.9,37.8,29.80,SSE,151,2.0,12.0,32,0.00,,,0.00,299,LWC V2.00 B727,2013-11-21 19:12:00,
2013-11-21 12:17:00,68.7,37.6,29.80,SE,135,3.0,12.0,32,0.00,,,0.00,417,LWC V2.00 B727,2013-11-21 19:17:00,
2013-11-21 12:22:00,68.8,37.7,29.80,SSE,165,5.0,13.0,32,0.00,,,0.00,359,LWC V2.00 B727,2013-11-21 19:22:00,
2013-11-21 12:27:00,68.9,37.8,29.79,SSE,157,4.0,13.0,32,0.00,,,0.00,367,LWC V2.00 B727,2013-11-21 19:27:00,
2013-11-21 12:32:00,68.8,38.5,29.79,SSW,210,3.0,8.0,33,0.00,,,0.00,376,LWC V2.00 B727,2013-11-21 19:32:00,
2013-11-21 12:37:00,68.7,37.6,29.79,SSE,162,6.0,11.0,32,0.00,,,0.00,339,LWC V2.00 B727,2013-11-21 19:37:00,
2013-11-21 12:42:00,68.8,38.5,29.78,SSE,156,6.0,12.0,33,0.00,,,0.00,364,LWC V2.00 B727,2013-11-21 19:42:00,
2013-11-21 12:47:00,68.7,38.4,29.78,SSE,164,7.0,16.0,33,0.00,,,0.00,424,LWC V2.00 B727,2013-11-21 19:47:00,
2013-11-21 12:52:00,69.3,38.2,29.78,SE,131,7.0,13.0,32,0.00,,,0.00,392,LWC V2.00 B727,2013-11-21 19:52:00,
2013-11-21 12:57:00,69.7,38.5,29.78,SE,130,10.0,12.0,32,0.00,,,0.00,594,LWC V2.00 B727,2013-11-21 19:57:00,
2013-11-21 13:02:00,70.1,38.9,29.78,SSW,207,2.0,5.0,32,0.00,,,0.00,304,LWC V2.00 B727,2013-11-21 20:02:00,
2013-11-21 13:07:00,70.1,38.9,29.78,SSE,162,5.0,11.0,32,0.00,,,0.00,675,LWC V2.00 B727,2013-11-21 20:07:00,
2013-11-21 13:12:00,71.3,39.9,29.78,South,180,5.0,10.0,32,0.00,,,0.00,650,LWC V2.00 B727,2013-11-21 20:12:00,
2013-11-21 13:17:00,71.9,39.6,29.78,South,174,5.0,11.0,31,0.00,,,0.00,707,LWC V2.00 B727,2013-11-21 20:17:00,
2013-11-21 13:22:00,72.3,40.0,29.77,SSE,163,5.0,10.0,31,0.00,,,0.00,747,LWC V2.00 B727,2013-11-21 20:22:00,
2013-11-21 13:27:00,72.7,40.3,29.77,South,172,0.0,9.0,31,0.00,,,0.00,708,LWC V2.00 B727,2013-11-21 20:27:00,
2013-11-21 13:32:00,72.4,39.2,29.78,SE,145,3.0,11.0,30,0.00,,,0.00,306,LWC V2.00 B727,2013-11-21 20:32:00,
2013-11-21 13:37:00,71.8,40.3,29.77,South,189,3.0,4.0,32,0.00,,,0.00,373,LWC V2.00 B727,2013-11-21 20:37:00,
2013-11-21 13:42:00,71.5,40.9,29.77,SE,130,11.0,11.0,33,0.00,,,0.00,302,LWC V2.00 B727,2013-11-21 20:42:00,
2013-11-21 13:47:00,71.0,40.4,29.77,SSE,164,4.0,6.0,33,0.00,,,0.00,345,LWC V2.00 B727,2013-11-21 20:47:00,
2013-11-21 13:52:00,70.6,40.9,29.77,SSE,155,3.0,7.0,34,0.00,,,0.00,292,LWC V2.00 B727,2013-11-21 20:52:00,
2013-11-21 13:57:00,70.7,40.9,29.77,South,180,4.0,5.0,34,0.00,,,0.00,758,LWC V2.00 B727,2013-11-21 20:57:00,
2013-11-21 14:02:00,71.9,41.2,29.77,South,180,7.0,8.0,33,0.00,,,0.00,487,LWC V2.00 B727,2013-11-21 21:02:00,
2013-11-21 14:07:00,72.0,41.3,29.77,SE,135,6.0,8.0,33,0.00,,,0.00,506,LWC V2.00 B727,2013-11-21 21:07:00,
2013-11-21 14:12:00,72.0,42.1,29.77,SE,126,0.0,9.0,34,0.00,,,0.00,483,LWC V2.00 B727,2013-11-21 21:12:00,
2013-11-21 14:17:00,72.0,42.1,29.76,SW,226,5.0,5.0,34,0.00,,,0.00,294,LWC V2.00 B727,2013-11-21 21:17:00,
2013-11-21 14:22:00,71.5,41.6,29.76,SE,128,3.0,6.0,34,0.00,,,0.00,221,LWC V2.00 B727,2013-11-21 21:22:00,
2013-11-21 14:27:00,71.1,42.0,29.76,South,182,0.0,5.0,35,0.00,,,0.00,167,LWC V2.00 B727,2013-11-21 21:27:00,
2013-11-21 14:32:00,70.7,41.7,29.76,South,191,2.0,4.0,35,0.00,,,0.00,153,LWC V2.00 B727,2013-11-21 21:32:00,
2013-11-21 14:37:00,70.2,42.0,29.76,SE,145,1.0,6.0,36,0.00,,,0.00,116,LWC V2.00 B727,2013-11-21 21:37:00,
2013-11-21 14:42:00,69.8,42.3,29.76,SSE,150,7.0,7.0,37,0.00,,,0.00,65,LWC V2.00 B727,2013-11-21 21:42:00,
2013-11-21 14:47:00,69.4,42.0,29.76,SSE,147,6.0,6.0,37,0.00,,,0.00,53,LWC V2.00 B727,2013-11-21 21:47:00,
2013-11-21 14:52:00,69.1,42.4,29.76,SE,146,2.0,5.0,38,0.00,,,0.00,83,LWC V2.00 B727,2013-11-21 21:52:00,
2013-11-21 14:57:00,68.9,42.9,29.76,SSW,193,1.0,6.0,39,0.00,,,0.00,137,LWC V2.00 B727,2013-11-21 21:57:00,
2013-11-21 15:02:00,68.9,43.6,29.76,SSW,194,2.0,5.0,40,0.00,,,0.00,144,LWC V2.00 B727,2013-11-21 22:02:00,
2013-11-21 15:07:00,69.0,43.7,29.76,SSE,168,3.0,3.0,40,0.00,,,0.00,151,LWC V2.00 B727,2013-11-21 22:07:00,
2013-11-21 15:12:00,69.0,43.7,29.76,South,174,1.0,4.0,40,0.00,,,0.00,114,LWC V2.00 B727,2013-11-21 22:12:00,
2013-11-21 15:17:00,69.0,43.7,29.75,SSE,151,0.0,0.0,40,0.00,,,0.00,95,LWC V2.00 B727,2013-11-21 22:17:00,
2013-11-21 15:22:00,69.0,43.7,29.75,SSE,152,2.0,3.0,40,0.00,,,0.00,121,LWC V2.00 B727,2013-11-21 22:22:00,
2013-11-21 15:27:00,69.1,44.4,29.75,SE,146,6.0,6.0,41,0.00,,,0.00,93,LWC V2.00 B727,2013-11-21 22:27:00,
2013-11-21 15:32:00,69.0,44.9,29.75,SSE,147,1.0,6.0,42,0.00,,,0.00,132,LWC V2.00 B727,2013-11-21 22:32:00,
2013-11-21 15:37:00,68.9,44.9,29.75,South,177,2.0,6.0,42,0.00,,,0.00,97,LWC V2.00 B727,2013-11-21 22:37:00,
2013-11-21 15:42:00,68.8,44.8,29.75,South,182,4.0,6.0,42,0.00,,,0.00,56,LWC V2.00 B727,2013-11-21 22:42:00,
2013-11-21 15:47:00,68.7,44.7,29.75,SE,140,2.0,6.0,42,0.00,,,0.00,40,LWC V2.00 B727,2013-11-21 22:47:00,
2013-11-21 15:52:00,68.5,44.5,29.76,SE,132,3.0,6.0,42,0.00,,,0.00,37,LWC V2.00 B727,2013-11-21 22:52:00,
2013-11-21 15:57:00,68.4,44.4,29.76,SSE,164,0.0,1.0,42,0.00,,,0.00,32,LWC V2.00 B727,2013-11-21 22:57:00,
2013-11-21 16:02:00,68.3,44.3,29.76,SSE,151,1.0,4.0,42,0.00,,,0.00,28,LWC V2.00 B727,2013-11-21 23:02:00,
2013-11-21 16:07:00,68.2,44.8,29.76,South,178,4.0,4.0,43,0.00,,,0.00,37,LWC V2.00 B727,2013-11-21 23:07:00,
2013-11-21 16:12:00,68.1,44.1,29.76,SSE,162,2.0,5.0,42,0.00,,,0.00,26,LWC V2.00 B727,2013-11-21 23:12:00,
2013-11-21 16:17:00,68.1,44.1,29.76,SE,142,0.0,5.0,42,0.00,,,0.00,30,LWC V2.00 B727,2013-11-21 23:17:00,
2013-11-21 16:22:00,68.0,44.0,29.76,SSE,154,4.0,5.0,42,0.00,,,0.00,12,LWC V2.00 B727,2013-11-21 23:22:00,
2013-11-21 16:27:00,68.0,44.0,29.76,SSE,168,0.0,4.0,42,0.00,,,0.00,7,LWC V2.00 B727,2013-11-21 23:27:00,
2013-11-21 16:32:00,67.9,43.3,29.76,South,179,0.0,4.0,41,0.00,,,0.00,12,LWC V2.00 B727,2013-11-21 23:32:00,
2013-11-21 16:37:00,67.8,43.2,29.76,South,187,2.0,4.0,41,0.00,,,0.00,11,LWC V2.00 B727,2013-11-21 23:37:00,
2013-11-21 16:42:00,67.7,43.8,29.76,South,182,0.0,3.0,42,0.00,,,0.00,11,LWC V2.00 B727,2013-11-21 23:42:00,
2013-11-21 16:47:00,67.7,44.4,29.76,SE,130,3.0,6.0,43,0.00,,,0.00,5,LWC V2.00 B727,2013-11-21 23:47:00,
2013-11-21 16:52:00,67.6,44.3,29.76,SSE,154,4.0,5.0,43,0.00,,,0.00,9,LWC V2.00 B727,2013-11-21 23:52:00,
2013-11-21 16:57:00,67.6,43.7,29.76,South,186,3.0,7.0,42,0.00,,,0.00,12,LWC V2.00 B727,2013-11-21 23:57:00,
2013-11-21 17:02:00,67.4,42.9,29.77,SSW,193,0.0,5.0,41,0.00,,,0.00,9,LWC V2.00 B727,2013-11-22 00:02:00,
2013-11-21 17:07:00,67.3,42.8,29.77,South,187,4.0,10.0,41,0.00,,,0.00,5,LWC V2.00 B727,2013-11-22 00:07:00,
2013-11-21 17:12:00,67.1,42.6,29.77,SSW,207,5.0,7.0,41,0.00,,,0.00,0,LWC V2.00 B727,2013-11-22 00:12:00,
2013-11-21 17:17:00,66.8,42.3,29.77,SW,219,5.0,8.0,41,0.00,,,0.00,0,LWC V2.00 B727,2013-11-22 00:17:00,
2013-11-21 17:22:00,66.5,42.1,29.78,SSW,206,6.0,6.0,41,0.00,,,0.00,0,LWC V2.00 B727,2013-11-22 00:22:00,
2013-11-21 17:27:00,66.3,42.5,29.78,SSW,213,7.0,7.0,42,0.00,,,0.00,0,LWC V2.00 B727,2013-11-22 00:27:00,
2013-11-21 17:32:00,66.0,42.9,29.78,SSW,212,4.0,9.0,43,0.00,,,0.00,0,LWC V2.00 B727,2013-11-22 00:32:00,
2013-11-21 17:37:00,65.7,42.6,29.79,SW,217,1.0,4.0,43,0.00,,,0.00,0,LWC V2.00 B727,2013-11-22 00:37:00,
2013-11-21 17:42:00,65.6,43.7,29.79,SW,225,5.0,9.0,45,0.00,,,0.00,0,LWC V2.00 B727,2013-11-22 00:42:00,
2013-11-21 17:47:00,65.0,44.3,29.79,WSW,242,1.0,3.0,47,0.00,,,0.00,0,LWC V2.00 B727,2013-11-22 00:47:00,
2013-11-21 17:52:00,64.5,44.4,29.79,WSW,248,1.0,6.0,48,0.00,,,0.00,0,LWC V2.00 B727,2013-11-22 00:52:00,
2013-11-21 17:57:00,64.1,45.1,29.80,West,261,0.0,2.0,50,0.00,,,0.00,0,LWC V2.00 B727,2013-11-22 00:57:00,
2013-11-21 18:02:00,63.9,46.4,29.80,West,262,0.0,1.0,53,0.00,,,0.00,0,LWC V2.00 B727,2013-11-22 01:02:00,
2013-11-21 18:07:00,63.5,48.0,29.80,West,278,0.0,2.0,57,0.00,,,0.00,0,LWC V2.00 B727,2013-11-22 01:07:00,
2013-11-21 18:12:00,62.9,48.3,29.80,West,278,0.0,0.0,59,0.00,,,0.00,0,LWC V2.00 B727,2013-11-22 01:12:00,
2013-11-21 18:17:00,62.6,49.4,29.81,West,278,0.0,0.0,62,0.00,,,0.00,0,LWC V2.00 B727,2013-11-22 01:17:00,
2013-11-21 18:22:00,62.3,50.0,29.81,West,278,0.0,0.0,64,0.00,,,0.00,0,LWC V2.00 B727,2013-11-22 01:22:00,
2013-11-21 18:27:00,61.7,51.0,29.82,West,278,0.0,0.0,68,0.26,,,0.02,0,LWC V2.00 B727,2013-11-22 01:27:00,
2013-11-21 18:32:00,60.8,51.3,29.81,West,278,0.0,0.0,71,0.16,,,0.03,0,LWC V2.00 B727,2013-11-22 01:32:00,
2013-11-21 18:37:00,60.2,51.5,29.81,West,278,0.0,0.0,73,0.12,,,0.04,0,LWC V2.00 B727,2013-11-22 01:37:00,
2013-11-21 18:42:00,59.3,51.4,29.81,West,279,0.0,0.0,75,0.07,,,0.04,0,LWC V2.00 B727,2013-11-22 01:42:00,
2013-11-21 18:47:00,58.7,51.9,29.81,WNW,285,0.0,0.0,78,0.04,,,0.04,0,LWC V2.00 B727,2013-11-22 01:47:00,
2013-11-21 18:52:00,58.3,51.8,29.81,WNW,285,0.0,0.0,79,0.00,,,0.04,0,LWC V2.00 B727,2013-11-22 01:52:00,
2013-11-21 18:57:00,58.1,52.0,29.81,WNW,285,0.0,0.0,80,0.00,,,0.04,0,LWC V2.00 B727,2013-11-22 01:57:00,
2013-11-21 19:02:00,57.8,51.7,29.80,WNW,285,0.0,0.0,80,0.00,,,0.05,0,LWC V2.00 B727,2013-11-22 02:02:00,
2013-11-21 19:07:00,57.6,51.8,29.80,WNW,285,0.0,0.0,81,0.11,,,0.06,0,LWC V2.00 B727,2013-11-22 02:07:00,
2013-11-21 19:08:00,57.5,51.7,29.80,WNW,285,0.0,0.0,81,0.11,,,0.06,0,LWC V2.00 B727,2013-11-22 02:08:00,
2013-11-21 19:13:00,57.3,51.8,29.80,WNW,290,0.0,2.0,82,0.06,,,0.06,0,LWC V2.00 B727,2013-11-22 02:13:00,
2013-11-21 19:18:00,57.1,52.0,29.80,WNW,295,0.0,0.0,83,0.04,,,0.06,0,LWC V2.00 B727,2013-11-22 02:18:00,
2013-11-21 19:23:00,56.9,51.8,29.80,WNW,295,1.0,2.0,83,0.00,,,0.06,0,LWC V2.00 B727,2013-11-22 02:23:00,
2013-11-21 19:28:00,56.7,51.6,29.80,WNW,295,0.0,3.0,83,0.00,,,0.06,0,LWC V2.00 B727,2013-11-22 02:28:00,
2013-11-21 19:33:00,56.7,51.9,29.80,WNW,295,0.0,0.0,84,0.00,,,0.06,0,LWC V2.00 B727,2013-11-22 02:33:00,
2013-11-21 19:38:00,56.7,51.9,29.80,NW,304,0.0,2.0,84,0.00,,,0.06,0,LWC V2.00 B727,2013-11-22 02:38:00,
2013-11-21 19:43:00,56.6,51.8,29.80,NW,304,0.0,2.0,84,0.00,,,0.06,0,LWC V2.00 B727,2013-11-22 02:43:00,
2013-11-21 19:48:00,56.7,52.2,29.79,NW,305,1.0,2.0,85,0.00,,,0.06,0,LWC V2.00 B727,2013-11-22 02:48:00,
2013-11-21 19:53:00,56.7,52.2,29.79,NW,305,0.0,0.0,85,0.00,,,0.06,0,LWC V2.00 B727,2013-11-22 02:53:00,
2013-11-21 19:58:00,56.7,52.2,29.79,NW,305,0.0,0.0,85,0.00,,,0.06,0,LWC V2.00 B727,2013-11-22 02:58:00,
2013-11-21 20:03:00,56.8,52.3,29.79,NW,305,0.0,0.0,85,0.00,,,0.06,0,LWC V2.00 B727,2013-11-22 03:03:00,
2013-11-21 20:08:00,56.7,52.2,29.80,NW,305,0.0,0.0,85,0.00,,,0.06,0,LWC V2.00 B727,2013-11-22 03:08:00,
2013-11-21 20:13:00,56.6,52.1,29.80,NW,305,0.0,0.0,85,0.00,,,0.06,0,LWC V2.00 B727,2013-11-22 03:13:00,
2013-11-21 20:18:00,56.6,52.1,29.80,NW,305,0.0,0.0,85,0.00,,,0.06,0,LWC V2.00 B727,2013-11-22 03:18:00,
2013-11-21 20:23:00,56.7,52.2,29.80,NW,305,0.0,0.0,85,0.00,,,0.06,0,LWC V2.00 B727,2013-11-22 03:23:00,
2013-11-21 20:28:00,56.7,52.2,29.79,NW,305,0.0,0.0,85,0.00,,,0.06,0,LWC V2.00 B727,2013-11-22 03:28:00,
2013-11-21 20:33:00,56.7,51.9,29.79,NW,305,0.0,0.0,84,0.00,,,0.06,0,LWC V2.00 B727,2013-11-22 03:33:00,
2013-11-21 20:38:00,56.7,51.9,29.79,NW,305,0.0,0.0,84,0.00,,,0.06,0,LWC V2.00 B727,2013-11-22 03:38:00,
2013-11-21 20:43:00,56.8,52.0,29.80,NW,305,0.0,0.0,84,0.00,,,0.06,0,LWC V2.00 B727,2013-11-22 03:43:00,
2013-11-21 20:48:00,56.8,52.0,29.80,NW,304,0.0,0.0,84,0.00,,,0.06,0,LWC V2.00 B727,2013-11-22 03:48:00,
2013-11-21 20:53:00,56.9,52.4,29.80,SW,220,2.0,3.0,85,0.00,,,0.06,0,LWC V2.00 B727,2013-11-22 03:53:00,
2013-11-21 20:58:00,56.7,52.6,29.80,SW,221,1.0,6.0,86,0.00,,,0.06,0,LWC V2.00 B727,2013-11-22 03:58:00,
2013-11-21 21:03:00,56.4,52.3,29.81,SSW,211,2.0,6.0,86,0.00,,,0.06,0,LWC V2.00 B727,2013-11-22 04:03:00,
2013-11-21 21:08:00,56.1,52.0,29.80,SW,223,0.0,2.0,86,0.00,,,0.06,0,LWC V2.00 B727,2013-11-22 04:08:00,
2013-11-21 21:13:00,55.8,51.7,29.81,SW,223,1.0,3.0,86,0.00,,,0.06,0,LWC V2.00 B727,2013-11-22 04:13:00,
2013-11-21 21:18:00,55.6,51.5,29.81,SW,223,0.0,0.0,86,0.00,,,0.06,0,LWC V2.00 B727,2013-11-22 04:18:00,
2013-11-21 21:23:00,55.5,51.4,29.81,WSW,237,0.0,2.0,86,0.00,,,0.06,0,LWC V2.00 B727,2013-11-22 04:23:00,
2013-11-21 21:28:00,55.5,51.7,29.81,NNW,327,1.0,1.0,87,0.00,,,0.06,0,LWC V2.00 B727,2013-11-22 04:28:00,
2013-11-21 21:33:00,55.5,51.7,29.81,NNW,330,0.0,1.0,87,0.00,,,0.06,0,LWC V2.00 B727,2013-11-22 04:33:00,
2013-11-21 21:38:00,55.6,51.8,29.81,NNW,330,0.0,1.0,87,0.00,,,0.06,0,LWC V2.00 B727,2013-11-22 04:38:00,
2013-11-21 21:43:00,55.6,51.8,29.80,NNW,330,0.0,0.0,87,0.00,,,0.06,0,LWC V2.00 B727,2013-11-22 04:43:00,
2013-11-21 21:48:00,55.6,51.8,29.80,NNW,330,0.0,0.0,87,0.00,,,0.06,0,LWC V2.00 B727,2013-11-22 04:48:00,
2013-11-21 21:53:00,55.7,51.9,29.80,NNW,330,0.0,0.0,87,0.00,,,0.06,0,LWC V2.00 B727,2013-11-22 04:53:00,
2013-11-21 21:58:00,55.7,51.9,29.80,NNW,330,0.0,0.0,87,0.00,,,0.06,0,LWC V2.00 B727,2013-11-22 04:58:00,
2013-11-21 22:01:00,55.7,51.9,29.79,NNW,330,1.0,1.0,87,0.00,,,0.06,0,LWC V2.00 B727,2013-11-22 05:01:00,
2013-11-21 22:06:00,55.9,51.8,29.79,NNW,327,0.0,2.0,86,0.00,,,0.06,0,LWC V2.00 B727,2013-11-22 05:06:00,
2013-11-21 22:11:00,55.9,51.8,29.79,NW,323,1.0,2.0,86,0.00,,,0.06,0,LWC V2.00 B727,2013-11-22 05:11:00,
2013-11-21 22:16:00,56.0,51.9,29.79,NW,316,0.0,3.0,86,0.00,,,0.06,0,LWC V2.00 B727,2013-11-22 05:16:00,
2013-11-21 22:21:00,56.1,51.7,29.79,NW,314,0.0,3.0,85,0.00,,,0.06,0,LWC V2.00 B727,2013-11-22 05:21:00,
2013-11-21 22:26:00,56.1,51.7,29.79,NW,314,0.0,3.0,85,0.00,,,0.06,0,LWC V2.00 B727,2013-11-22 05:26:00,
2013-11-21 22:31:00,56.1,51.3,29.80,NW,314,0.0,0.0,84,0.00,,,0.06,0,LWC V2.00 B727,2013-11-22 05:31:00,
2013-11-21 22:36:00,56.1,51.3,29.79,NW,314,0.0,0.0,84,0.00,,,0.06,0,LWC V2.00 B727,2013-11-22 05:36:00,
2013-11-21 22:41:00,56.2,51.4,29.80,NW,318,0.0,2.0,84,0.00,,,0.06,0,LWC V2.00 B727,2013-11-22 05:41:00,
2013-11-21 22:46:00,56.2,51.4,29.80,NW,318,0.0,0.0,84,0.00,,,0.06,0,LWC V2.00 B727,2013-11-22 05:46:00,
2013-11-21 22:51:00,56.2,51.4,29.80,NW,318,0.0,0.0,84,0.00,,,0.06,0,LWC V2.00 B727,2013-11-22 05:51:00,
2013-11-21 22:56:00,56.2,51.4,29.80,NW,318,0.0,0.0,84,0.00,,,0.07,0,LWC V2.00 B727,2013-11-22 05:56:00,
2013-11-21 23:01:00,56.2,51.4,29.80,NW,316,0.0,2.0,84,0.00,,,0.07,0,LWC V2.00 B727,2013-11-22 06:01:00,
2013-11-21 23:06:00,56.2,51.4,29.80,NW,316,0.0,0.0,84,0.00,,,0.07,0,LWC V2.00 B727,2013-11-22 06:06:00,
2013-11-21 23:11:00,56.1,51.3,29.80,NW,316,0.0,0.0,84,0.00,,,0.07,0,LWC V2.00 B727,2013-11-22 06:11:00,
2013-11-21 23:16:00,56.0,51.6,29.80,NW,316,0.0,0.0,85,0.00,,,0.08,0,LWC V2.00 B727,2013-11-22 06:16:00,
2013-11-21 23:21:00,55.9,51.5,29.80,NW,316,0.0,0.0,85,0.00,,,0.08,0,LWC V2.00 B727,2013-11-22 06:21:00,
2013-11-21 23:26:00,55.9,51.8,29.79,NW,316,0.0,0.0,86,0.00,,,0.08,0,LWC V2.00 B727,2013-11-22 06:26:00,
2013-11-21 23:31:00,55.9,51.8,29.79,NW,316,0.0,0.0,86,0.00,,,0.08,0,LWC V2.00 B727,2013-11-22 06:31:00,
2013-11-21 23:36:00,55.9,51.8,29.79,NW,316,0.0,0.0,86,0.00,,,0.08,0,LWC V2.00 B727,2013-11-22 06:36:00,
2013-11-21 23:41:00,55.8,52.0,29.78,NW,316,0.0,0.0,87,0.00,,,0.08,0,LWC V2.00 B727,2013-11-22 06:41:00,
2013-11-21 23:46:00,55.8,52.0,29.78,NW,316,0.0,0.0,87,0.00,,,0.08,0,LWC V2.00 B727,2013-11-22 06:46:00,
2013-11-21 23:51:00,55.7,51.9,29.79,NW,316,0.0,0.0,87,0.00,,,0.08,0,LWC V2.00 B727,2013-11-22 06:51:00,
2013-11-21 23:56:00,55.6,52.1,29.78,NW,316,0.0,0.0,88,0.00,,,0.08,0,LWC V2.00 B727,2013-11-22 06:56:00,